This is the latest recevied weather packets stored in our database for station/object WA0GMH-1. If no packets are shown the sender has not sent any weather packets the latest 10 day(s).
| Time | Temp. | Humidity | Pressure | Rain* | Wind** | Luminosity | Snow |
|---|---|---|---|---|---|---|---|
| 1777484258 | 12.22° C | 36% | 1020.1 hPa | 0 mm | - | - | - |
| 1777483855 | 12.22° C | 38% | 1020.3 hPa | 0 mm | - | - | - |
| 1777483453 | 12.22° C | 37% | 1020.3 hPa | 0 mm | - | - | - |
| 1777483050 | 12.22° C | 35% | 1020.5 hPa | 0 mm | - | - | - |
| 1777482649 | 12.22° C | 37% | 1020.5 hPa | 0 mm | - | - | - |
| 1777482246 | 12.22° C | 36% | 1020.6 hPa | 0 mm | - | - | - |
| 1777481844 | 12.22° C | 36% | 1020.5 hPa | 0 mm | - | - | - |
| 1777481442 | 12.22° C | 39% | 1020.5 hPa | 0 mm | - | - | - |
| 1777481040 | 12.22° C | 41% | 1020.6 hPa | 0 mm | - | - | - |
| 1777480637 | 11.67° C | 45% | 1020.4 hPa | 0 mm | - | - | - |
| 1777480235 | 12.22° C | 50% | 1020.6 hPa | 0 mm | - | - | - |
| 1777479832 | 11.67° C | 52% | 1020.6 hPa | 0 mm | - | - | - |
| 1777479431 | 11.67° C | 55% | 1020.2 hPa | 0 mm | - | - | - |
| 1777479028 | 11.11° C | 59% | 1020.2 hPa | 0 mm | - | - | - |
| 1777478626 | 11.11° C | 62% | 1020.3 hPa | 0 mm | - | - | - |
| 1777478224 | 11.11° C | 68% | 1020.3 hPa | 0 mm | - | - | - |
| 1777477822 | 10.56° C | 70% | 1020.3 hPa | 0 mm | - | - | - |
| 1777477419 | 10.56° C | 73% | 1020.3 hPa | 0 mm | - | - | - |
| 1777477017 | 10° C | 76% | 1020.5 hPa | 0 mm | - | - | - |
| 1777476614 | 9.44° C | 77% | 1020.5 hPa | 0 mm | - | - | - |
| 1777476213 | 8.89° C | 77% | 1020.4 hPa | 0 mm | - | - | - |
| 1777475810 | 8.89° C | 78% | 1020.2 hPa | 0 mm | - | - | - |
| 1777475408 | 8.89° C | 81% | 1020.3 hPa | 0 mm | - | - | - |
| 1777475005 | 8.33° C | 82% | 1020.1 hPa | 0 mm | - | - | - |
| 1777474604 | 8.33° C | 86% | 1020.2 hPa | 0 mm | - | - | - |
* Rain since midnight (hover to see other rain measurements)
** Current wind speed in m/s (hover to see current wind gust speed)